Location: Unspecified
(46.5037°N, 0.0000°E)
Time: 20:01:39
(UTC+00:00)

SL-14 DEB - Visible Passes

Search period start: 04 April 2026 00:00
Search period end: 14 April 2026 00:00
Orbit: 858 x 1069 km, 82.6° (Epoch: 29 March)

Date Brightness Start Highest point End Pass type
(mag) Time Alt. Az. Time Alt. Az. Time Alt. Az.
4 Apr ? 02:00:32 10° NNE 02:05:14 25° ENE 02:09:51 10° ESE visible
4 Apr ? 03:45:13 10° NNW 03:50:43 49° W 03:54:50 17° SSW visible
5 Apr ? 02:21:51 10° N 02:27:16 41° ENE 02:31:12 17° SE visible
5 Apr ? 04:07:23 10° NNW 04:12:13 29° W 04:15:32 17° SW visible
6 Apr ? 01:01:09 10° NE 01:02:43 11° ENE 01:04:18 10° ENE visible
6 Apr ? 02:43:24 10° N 02:49:07 70° E 02:52:02 29° SSE visible
6 Apr ? 04:30:01 10° NW 04:33:34 17° W 04:36:24 12° WSW visible
7 Apr ? 01:21:05 10° NNE 01:24:59 19° ENE 01:28:38 11° ESE visible
7 Apr ? 03:05:08 10° NNW 03:10:48 70° W 03:13:00 38° SSW visible
8 Apr ? 01:42:05 10° N 01:47:03 30° ENE 01:49:39 21° ESE visible
8 Apr ? 03:27:03 10° NNW 03:32:20 41° W 03:34:00 33° SW visible
9 Apr ? 02:03:25 10° N 02:08:56 49° ENE 02:10:43 37° SE visible
9 Apr ? 03:49:16 10° NNW 03:53:44 24° W 03:55:05 22° WSW visible
10 Apr ? 00:41:51 10° NNE 00:44:30 13° ENE 00:47:07 10° E visible
10 Apr ? 02:24:57 10° N 02:30:40 83° E 02:31:50 58° SSE visible
10 Apr ? 04:12:07 10° NW 04:14:58 14° W 04:16:12 13° W visible
11 Apr ? 01:02:18 10° NNE 01:06:36 22° ENE 01:08:37 18° E visible
11 Apr ? 02:46:41 10° NNW 02:52:14 59° W 02:52:59 54° SW visible
12 Apr ? 01:23:23 10° N 01:28:33 35° ENE 01:29:46 32° E visible
12 Apr ? 03:08:37 10° NNW 03:13:39 34° W 03:14:09 34° W visible
13 Apr ? 01:44:43 10° N 01:50:18 59° ENE 01:50:57 55° ESE visible
13 Apr ? 03:30:54 10° NW 03:34:57 21° W 03:35:20 20° W visible
